Weather History for Cheboygan, MI

Change the Weather History Date:

Thursday, September 26, 2013

  Actual Average (KPLN) Record (KPLN)
Temperature  
Mean Temperature 50 °F -  
Max Temperature 65 °F 63 °F 83 °F (1973)
Min Temperature 34 °F 41 °F 21 °F (1955)
Degree Days  
Heating Degree Days 16    
Moisture  
Dew Point 43 °F    
Average Humidity 81    
Maximum Humidity 94    
Minimum Humidity 52    
Precipitation  
Precipitation 0.00 in - - ()
Sea Level Pressure  
Sea Level Pressure 30.12 in    
Wind  
Wind Speed 2 mph (ENE)    
Max Wind Speed 10 mph    
Max Gust Speed -    
Visibility 7 miles    
Events Fog    
Averages and records for this station are not official NWS values.
T = Trace of Precipitation, MM = Missing Value Source: NWS Daily Summary

Daily Weather History Graph

Daily Weather History Graph

Search for Another Location

Airport:

Trip Planner

Search our weather history database for the weather conditions in past years. The results will help you decide how hot, cold, wet, or windy it might be!

Date:

Astronomy

Sep. 26, 2013 Rise Set
Actual Time 7:30 AM EDT 7:27 PM EDT
Civil Twilight 7:00 AM EDT 7:56 PM EDT
Nautical Twilight 6:26 AM EDT 8:31 PM EDT
Astronomical Twilight 5:50 AM EDT 9:06 PM EDT
Moon No Moon Rise 2:37 PM EDT (9/26)
Length of Visible Light 12h 56m
Length of Day
11h 57m
Waning Gibbous, 55% of the Moon is Illuminated
Sep 26
Waning Gibbous
Sep 26
Last Quarter
Oct 4
New
Oct 11
First Quarter
Oct 18
Full

Hourly Weather History & Observations

Time (EDT) Temp. Windchill Dew Point Humidity Pressure Visibility Wind Dir Wind Speed Gust Speed Precip Events Conditions
12:16 AM 40.3 °F - 37.9 °F 91% 30.05 in 5.0 mi Calm Calm - N/A   Clear
12:35 AM 40.3 °F - 38.1 °F 92% 30.04 in 10.0 mi Calm Calm - N/A   Clear
12:56 AM 38.1 °F - 35.6 °F 91% 30.05 in 5.0 mi Calm Calm - N/A   Clear
1:15 AM 37.8 °F - 35.4 °F 91% 30.05 in 10.0 mi Calm Calm - N/A   Clear
1:36 AM 38.3 °F - 35.2 °F 89% 30.05 in 10.0 mi Calm Calm - N/A   Clear
1:55 AM 37.9 °F - 35.8 °F 92% 30.05 in 10.0 mi Calm Calm - N/A   Scattered Clouds
2:16 AM 37.4 °F - 35.4 °F 93% 30.06 in 1.2 mi Calm Calm - N/A   Overcast
2:36 AM 36.5 °F - 34.5 °F 93% 30.06 in 0.2 mi Calm Calm - N/A Fog Fog
2:55 AM 36.0 °F - 34.3 °F 94% 30.06 in 0.2 mi Calm Calm - N/A Fog Fog
3:16 AM 35.1 °F - 33.3 °F 93% 30.07 in 0.2 mi Calm Calm - N/A Fog Fog
3:36 AM 36.0 °F - 34.3 °F 94% 30.07 in 0.2 mi Calm Calm - N/A Fog Fog
3:56 AM 35.6 °F - 34.0 °F 94% 30.07 in 1.2 mi Calm Calm - N/A   Overcast
4:16 AM 35.4 °F - 33.8 °F 94% 30.08 in 1.0 mi Calm Calm - N/A   Overcast
4:35 AM 34.9 °F - 33.3 °F 94% 30.08 in 10.0 mi Calm Calm - N/A   Scattered Clouds
4:56 AM 34.3 °F - 32.7 °F 94% 30.09 in 0.8 mi Calm Calm - N/A   Overcast
5:16 AM 34.5 °F - 32.9 °F 94% 30.10 in 1.0 mi Calm Calm - N/A   Overcast
5:35 AM 34.7 °F - 33.1 °F 94% 30.10 in 0.5 mi Calm Calm - N/A Fog Fog
5:56 AM 35.4 °F - 33.6 °F 93% 30.10 in 0.5 mi Calm Calm - N/A Fog Fog
6:16 AM 34.7 °F - 33.1 °F 94% 30.11 in 0.5 mi Calm Calm - N/A Fog Fog
6:36 AM 34.9 °F - 33.4 °F 94% 30.11 in 0.2 mi Calm Calm - N/A Fog Fog
6:55 AM 35.1 °F - 33.3 °F 93% 30.12 in 0.5 mi Calm Calm - N/A Fog Fog
7:16 AM 34.2 °F - 32.5 °F 94% 30.12 in 0.8 mi Calm Calm - N/A   Overcast
7:36 AM 34.9 °F - 33.1 °F 93% 30.12 in 0.8 mi Calm Calm - N/A   Mostly Cloudy
7:55 AM 34.3 °F - 32.5 °F 93% 30.13 in 1.0 mi Calm Calm - N/A   Mist
8:16 AM 36.0 °F - 34.0 °F 93% 30.13 in 7.0 mi Calm Calm - N/A   Clear
8:36 AM 37.8 °F - 36.1 °F 94% 30.13 in 10.0 mi Calm Calm - N/A   Clear
8:55 AM 42.8 °F - 41.2 °F 94% 30.13 in 10.0 mi Calm Calm - N/A   Clear
9:16 AM 46.8 °F - 45.1 °F 94% 30.13 in 10.0 mi Calm Calm - N/A   Clear
9:36 AM 48.6 °F - 46.0 °F 91% 30.14 in 10.0 mi SSW 3.5 mph - N/A   Clear
9:55 AM 51.3 °F - 47.5 °F 87% 30.14 in 10.0 mi Calm Calm - N/A   Clear
10:16 AM 54.5 °F - 48.0 °F 79% 30.14 in 10.0 mi SSE 4.6 mph - N/A   Clear
10:36 AM 56.3 °F - 48.9 °F 76% 30.13 in 10.0 mi SE 3.5 mph - N/A   Clear
10:56 AM 58.6 °F - 49.5 °F 72% 30.14 in 10.0 mi South 3.5 mph - N/A   Clear
11:15 AM 60.6 °F - 48.2 °F 64% 30.14 in 10.0 mi SE 5.8 mph - N/A   Clear
11:36 AM 63.0 °F - 47.7 °F 57% 30.13 in 10.0 mi SSE 5.8 mph - N/A   Clear
11:56 AM 65.3 °F - 47.5 °F 52% 30.13 in 10.0 mi SE 6.9 mph - N/A   Clear
12:15 PM 65.5 °F - 50.2 °F 58% 30.13 in 10.0 mi NE 4.6 mph - N/A   Clear
12:36 PM 64.2 °F - 49.6 °F 59% 30.13 in 10.0 mi NE 6.9 mph - N/A   Clear
12:55 PM 63.7 °F - 51.4 °F 64% 30.13 in 10.0 mi NE 8.1 mph - N/A   Clear
1:16 PM 64.6 °F - 49.3 °F 58% 30.13 in 10.0 mi NE 6.9 mph - N/A   Clear
1:35 PM 64.8 °F - 49.6 °F 58% 30.13 in 10.0 mi ENE 6.9 mph - N/A   Clear
1:56 PM 64.6 °F - 50.0 °F 59% 30.13 in 10.0 mi NE 6.9 mph - N/A   Clear
2:15 PM 64.4 °F - 50.9 °F 62% 30.13 in 10.0 mi NE 6.9 mph - N/A   Clear
2:36 PM 64.6 °F - 49.5 °F 58% 30.12 in 10.0 mi ENE 8.1 mph - N/A   Clear
2:56 PM 63.9 °F - 49.8 °F 60% 30.12 in 10.0 mi ENE 10.4 mph - N/A   Clear
3:15 PM 63.5 °F - 50.4 °F 62% 30.12 in 10.0 mi NE 9.2 mph - N/A   Clear
3:36 PM 62.1 °F - 50.5 °F 66% 30.12 in 10.0 mi NE 6.9 mph - N/A   Clear
3:56 PM 63.7 °F - 50.5 °F 62% 30.12 in 10.0 mi ENE 9.2 mph - N/A   Clear
4:15 PM 64.0 °F - 49.8 °F 60% 30.12 in 10.0 mi NE 9.2 mph - N/A   Clear
4:36 PM 63.5 °F - 48.7 °F 59% 30.13 in 10.0 mi NE 6.9 mph - N/A   Clear
4:55 PM 63.5 °F - 49.3 °F 60% 30.13 in 10.0 mi NE 8.1 mph - N/A   Clear
5:16 PM 62.8 °F - 49.8 °F 63% 30.13 in 10.0 mi NE 8.1 mph - N/A   Clear
5:36 PM 62.6 °F - 50.7 °F 65% 30.13 in 10.0 mi NE 5.8 mph - N/A   Clear
5:55 PM 62.2 °F - 51.1 °F 67% 30.13 in 10.0 mi NE 5.8 mph - N/A   Clear
6:16 PM 61.7 °F - 51.1 °F 68% 30.13 in 10.0 mi NE 3.5 mph - N/A   Clear
6:36 PM 61.0 °F - 51.6 °F 71% 30.13 in 10.0 mi NE 4.6 mph - N/A   Clear
6:55 PM 59.5 °F - 52.2 °F 77% 30.13 in 10.0 mi NE 3.5 mph - N/A   Clear
7:16 PM 57.7 °F - 52.0 °F 81% 30.13 in 10.0 mi ENE 3.5 mph - N/A   Clear
7:36 PM 55.8 °F - 51.4 °F 85% 30.13 in 10.0 mi Calm Calm - N/A   Clear
7:56 PM 55.0 °F - 51.3 °F 87% 30.13 in 10.0 mi Calm Calm - N/A   Clear
8:15 PM 54.0 °F - 50.9 °F 89% 30.13 in 10.0 mi Calm Calm - N/A   Clear
8:36 PM 51.4 °F - 49.5 °F 93% 30.14 in 7.0 mi Calm Calm - N/A   Clear
8:55 PM 50.2 °F - 48.0 °F 92% 30.14 in 10.0 mi Calm Calm - N/A   Clear
9:16 PM 50.2 °F - 48.4 °F 94% 30.14 in 10.0 mi Calm Calm - N/A   Clear
9:35 PM 48.9 °F - 46.9 °F 93% 30.14 in 10.0 mi Calm Calm - N/A   Clear
9:53 PM 48.6 °F - 46.6 °F 93% 30.14 in 10.0 mi Calm Calm - N/A   Clear
10:15 PM 45.3 °F - 43.0 °F 92% 30.15 in 10.0 mi Calm Calm - N/A   Clear
10:35 PM 45.5 °F - 42.8 °F 90% 30.15 in 1.8 mi Calm Calm - N/A   Mist
10:56 PM 46.4 °F - 42.8 °F 87% 30.15 in 10.0 mi Calm Calm - N/A   Clear
11:15 PM 44.8 °F - 41.0 °F 87% 30.15 in 7.0 mi Calm Calm - N/A   Clear
11:36 PM 44.6 °F 43.1 °F 41.2 °F 88% 30.15 in 10.0 mi South 3.5 mph - N/A   Clear
11:56 PM 44.1 °F 42.5 °F 40.6 °F 88% 30.15 in 10.0 mi SSE 3.5 mph - N/A   Clear